#timestamp,LO_Frequency,Hit,StdDev 
1539842415.8,286047003.7,N
1539842435.6,286047004.1,N
1539842455.5,286047003.0,N
1539842475.3,286047006.0,Y
1539842495.1,286047004.1,P
1539842515.9,286047003.8,N
1539842535.7,286047003.9,P
1539842555.6,286047001.5,N
1539842575.4,286047003.9,Y
1539842595.2,286046999.7,P
1539842615.1,286046999.8,N
1539842616.0,286046999.8,N
1539842635.8,286046999.9,N
1539842655.7,286047000.5,N
1539842675.5,286047000.7,N
1539842695.3,286046998.1,N
1539842715.2,286047000.8,N
1539842735.9,286047000.0,N
1539842755.7,286046999.7,N
1539842775.6,286046999.7,N
1539842795.4,286046998.5,N
1539842815.2,286046998.3,N
1539842835.1,286046998.6,N
1539842836.0,286046998.6,N
1539842855.8,286047001.0,N
1539842875.7,286047000.8,N
1539842895.5,286046998.9,N
1539842915.3,286047000.8,N
1539842935.2,286047000.0,N
1539842955.0,286047000.6,N
1539842955.9,286047000.6,N
1539842975.8,286047000.8,N
1539842995.6,286047001.2,N
1539843015.4,286047000.8,N
1539843035.3,286046998.7,N
1539843055.1,286046998.9,N
1539843056.0,286046998.9,N
1539843075.8,286047001.1,N
1539843095.7,286047001.2,N
1539843115.5,286046998.1,N
1539843135.4,286046999.2,N
1539843155.2,286046999.0,N
1539843175.0,286046999.2,N
1539843175.9,286046999.2,N
1539843195.8,286046999.4,N
1539843215.6,286046999.4,N
1539843235.5,286046998.9,N
1539843255.3,286046996.9,Y
1539843275.1,286046998.8,P
1539843295.9,286047001.2,N
1539843315.7,286046998.8,N
1539843335.5,286046998.8,N
1539843355.4,286047001.1,N
1539843375.2,286046998.4,N
1539843395.0,286046998.6,N
1539843396.0,286046998.6,N
1539843415.8,286046998.6,N
1539843435.6,286046999.0,N
1539843455.5,286046998.4,N
1539843475.3,286046998.6,N
1539843495.1,286046998.8,N
1539843515.9,286046998.6,N
1539843535.7,286046998.3,N
1539843555.5,286046998.3,N
1539843575.4,286046999.1,N
1539843595.2,286046998.6,N
1539843615.1,286046998.9,N
1539843616.0,286046998.9,N
1539843635.8,286046998.7,N
1539843655.6,286046999.4,N
1539843675.5,286046999.2,N
1539843695.3,286046996.6,Y
1539843715.2,286046998.8,P
1539843735.9,286046998.6,P
1539843755.7,286046999.2,P
1539843775.6,286047000.9,Y
1539843795.4,286046998.6,P
1539843815.2,286046998.9,P
1539843835.1,286046999.9,N
1539843836.0,286046999.9,N
1539843855.8,286046999.8,N
1539843875.7,286047000.5,N
1539843895.5,286047000.6,N
1539843915.3,286046998.2,N
1539843935.2,286046998.7,N
1539843955.9,286047001.1,N
1539843975.7,286047000.7,N
1539843995.6,286047000.3,N
1539844015.4,286047000.9,N
1539844035.3,286047000.9,N
1539844055.1,286046998.3,N
1539844056.0,286046998.3,N
1539844075.8,286047001.1,N
1539844095.7,286046998.4,N
1539844115.5,286046999.9,N
1539844135.3,286047000.0,N
1539844155.2,286047001.1,N
1539844175.0,286047000.7,N
1539844175.9,286047000.7,N
1539844195.8,286046998.3,N
1539844215.6,286047000.8,N
1539844235.4,286047001.0,N
1539844255.3,286046998.5,N
1539844275.1,286047000.5,N
1539844295.8,286047000.9,N
1539844315.7,286046998.6,N
1539844335.5,286046999.4,N
1539844355.3,286046998.6,N
1539844375.2,286046998.4,N
1539844395.0,286046998.3,N
1539844395.9,286046998.3,N
1539844415.8,286046998.2,N
1539844435.6,286046996.6,N
1539844455.4,286046999.2,N
1539844475.3,286046998.9,N
1539844495.1,286046997.1,N
1539844515.9,286046997.0,N
1539844535.7,286046998.9,N
1539844555.5,286046999.6,N
1539844575.4,286046999.1,N
1539844595.2,286046999.1,N
1539844615.1,286046998.7,N
1539844616.0,286046998.7,N
1539844635.8,286046999.4,N
1539844655.6,286046998.9,N
1539844675.5,286046996.5,Y
1539844695.3,286046997.0,P
1539844715.2,286046997.2,N
1539844735.9,286046998.7,N
1539844755.7,286046998.4,N
1539844775.6,286046998.4,N
1539844795.4,286046998.6,N
1539844815.3,286047001.2,N
1539844835.1,286047000.7,N
1539844836.0,286047000.7,N
1539844855.8,286046998.1,N
1539844875.7,286046999.0,N
1539844895.5,286046996.5,N
1539844915.4,286046999.6,N
1539844935.2,286046998.8,N
1539844955.0,286046997.8,N
1539844955.9,286046997.8,N
1539844975.8,286046997.5,N
1539844995.6,286046997.3,N
1539845015.5,286046998.0,N
1539845035.3,286046997.8,N
1539845055.1,286046997.2,N
1539845075.9,286046997.8,N
1539845095.7,286046997.8,N
1539845115.6,286046997.0,N
1539845135.4,286046997.2,N
1539845155.2,286046996.7,N
1539845175.1,286046996.8,N
1539845176.0,286046996.8,N
1539845195.8,286046997.5,N
1539845215.6,286046995.7,Y
1539845235.5,286046999.2,P
1539845255.3,286046999.4,N
1539845275.2,286046999.1,N
1539845295.9,286046999.1,N
1539845315.7,286046999.2,N
1539845335.6,286046999.6,N
1539845355.4,286046997.9,Y
1539845375.2,286046997.3,P
1539845395.1,286046995.1,P
1539845396.0,286046995.1,P
1539845415.8,286046995.4,N
1539845435.7,286046997.5,N
1539845455.5,286046995.0,Y
1539845475.3,286046998.3,P
1539845495.2,286047001.2,N
1539845515.0,286046998.1,N
1539845515.9,286046998.1,N
1539845535.8,286047000.4,N
1539845555.6,286047000.2,N
1539845575.4,286047000.3,N
1539845595.3,286047001.0,N
1539845615.1,286047002.3,N
1539845635.8,286047003.9,N
1539845655.7,286047002.0,N
1539845675.5,286047001.7,N
1539845695.4,286047004.1,N
1539845715.2,286047002.4,N
1539845735.0,286047001.5,N
1539845735.9,286047001.5,N
1539845755.8,286047001.7,N
1539845775.6,286047001.9,N
1539845795.4,286047001.8,N
1539845815.3,286047002.5,N
1539845835.1,286047001.4,N
1539845855.9,286047003.9,N
1539845875.7,286047004.1,N
1539845895.5,286047004.2,N
1539845915.4,286047002.0,N
1539845935.2,286047001.6,N
1539845955.0,286047001.9,N
1539845955.9,286047001.9,N
1539845975.8,286047001.6,N
1539845995.6,286047001.8,N
